[Date Prev][Date Next][Thread Prev][Thread Next] - [Date Index][Thread Index][Author Index]

ISS 2Line Keps 02/14





ISS
1 25544U 98067A   02045.82215942  .00070881  00000-0  81315-3 0   754
2 25544  51.6385 308.0285 0005626  75.6142 358.0632 15.61403518184947

_________________________________________________________________
MSN Photos is the easiest way to share and print your photos: 
http://photos.msn.com/support/worldwide.aspx

----
Via the sarex mailing list at AMSAT.ORG courtesy of AMSAT-NA.
To unsubscribe, send "unsubscribe sarex" to Majordomo@amsat.org



AMSAT Top AMSAT Home